User: anonymous   Login
Location: Unspecified
(0.0000°N, 0.0000°E)
Time: 17:34:26
(UTC+00:00)
Language:

Vanguard 2 - Orbit

View from above orbital plane
View from above orbital plane
View from above satellite
View from above satellite

Ground track
Ground track

The orbit data is extracted from the following two-line orbital elements,

1 00011U 59001A   17228.15617920  .00000174  00000-0  84486-4 0  9994
2 00011  32.8695 345.4500 1466819 162.3236 203.4430 11.85424354493690
Epoch (UTC): 16 August 2017 03:44:53
Eccentricity: 0.1466819
inclination: 32.8695°
perigee height: 555 km
apogee height: 2938 km
right ascension of ascending node: 345.4500°
argument of perigee: 162.3236°
revolutions per day: 11.85424354
mean anomaly at epoch: 203.4430°
orbit number at epoch: 49369

The dashed part of the orbit path shows where the satellite is in the earth's shadow,  

DLR